Temperature
9 9 9 9 9 8 8 8 8 8 8 8 8 9 9 9 9 9 9 9 9 9 9 9 8 8 7 6 6 7 7 7 7 7 7 7 7 7 7 7 6 6 6
9 9 9 9 8 8 8 8 8 7 8 8 8 8 8 8 8 8 9 9 9 9 9 9 9 8 8 7 6 6 6 6 6 6 6 7 7 6 6 6 6 6 6
9 8 8 8 8 8 8 8 7 7 7 7 8 8 8 8 8 8 8 9 9 9 9 9 9 9 8 8 7 6 6 6 6 6 6 6 6 6 6 6 6 5 5
8 8 8 8 8 7 7 7 7 7 7 7 7 7 7 8 8 8 8 8 9 9 9 9 9 9 9 8 8 7 7 6 6 6 6 6 6 6 6 5 5 5 5
8 8 8 7 7 7 7 7 7 6 6 6 6 6 6 7 7 8 8 8 8 9 9 9 9 9 9 9 8 8 7 7 6 6 6 6 5 5 5 5 5 5 5
9 8 8 8 7 7 7 7 7 6 6 6 6 5 6 6 7 7 8 8 8 9 9 9 9 9 9 9 9 8 8 7 6 6 6 5 5 5 5 5 5 5 4
9 8 8 8 7 7 7 7 6 6 6 5 5 5 5 5 6 7 8 8 8 8 9 9 9 9 9 9 9 8 8 7 7 6 6 5 5 5 5 5 4 4 4
9 9 9 8 8 7 8 7 7 6 6 6 4 4 4 6 6 5 6 7 8 8 8 8 8 8 8 8 9 8 8 8 7 6 5 5 5 5 5 4 4 4 4
9 9 9 8 8 8 8 8 7 6 6 5 4 4 3 5 6 5 5 5 5 6 6 6 7 7 7 7 7 8 8 7 7 6 5 5 5 4 4 4 4 4 4
9 9 9 8 8 8 8 8 7 6 5 5 4 4 3 3 2 3 4 4 4 4 4 4 5 5 6 6 6 6 7 7 6 6 5 4 4 4 4 4 4 4 4
9 8 8 8 8 7 7 7 7 6 5 5 5 4 3 2 1 1 2 3 4 3 3 3 3 3 4 5 5 6 6 6 6 5 5 4 4 4 4 4 4 4 4
8 8 7 7 7 7 7 7 6 6 6 5 5 4 3 2 2 1 1 2 3 3 3 3 2 2 3 4 5 5 5 5 5 5 4 4 3 3 3 3 4 4 4
7 7 7 7 7 6 6 6 6 6 5 5 4 4 3 2 2 1 1 1 2 2 2 2 2 2 2 3 4 4 4 4 4 4 4 3 3 3 2 3 3 3 3
6 6 6 6 6 6 6 6 5 5 5 5 4 4 3 3 2 1 1 0 0 1 2 2 2 2 2 2 2 3 3 3 3 3 3 2 2 2 2 2 2 2 2
6 6 6 6 6 5 5 5 5 5 4 4 4 3 2 2 2 1 0 -0 -1 -0 1 2 2 2 1 1 1 1 2 2 2 2 2 1 1 1 1 1 1 1 1
5 5 5 5 5 5 5 4 4 4 3 3 3 2 2 1 1 0 -0 -1 -1 -2 -1 0 1 1 0 -0 -0 -0 0 0 1 1 1 0 -0 -0 -0 -0 -0 0 0
4 4 4 4 4 4 4 3 3 2 2 2 1 1 1 0 -0 -1 -1 -1 -1 -2 -2 -1 -0 -0 -1 -1 -1 -1 -1 -1 -1 -0 -0 -0 -1 -1 -1 -1 -1 -1 -0
4 4 3 3 3 3 3 2 2 1 1 1 0 -0 -0 -1 -1 -1 -1 -2 -2 -2 -2 -2 -1 -1 -1 -2 -2 -2 -2 -2 -2 -1 -1 -1 -2 -2 -2 -2 -2 -1 -1
3 3 3 3 2 2 2 2 1 0 -0 -0 -1 -1 -1 -2 -2 -2 -2 -2 -2 -2 -2 -2 -2 -2 -2 -2 -3 -3 -3 -3 -3 -2 -2 -2 -2 -2 -2 -2 -2 -2 -2
3 3 2 2 2 1 1 1 0 -0 -1 -1 -1 -2 -2 -2 -2 -3 -3 -3 -3 -3 -3 -3 -3 -3 -3 -3 -3 -3 -3 -3 -3 -3 -3 -3 -3 -3 -3 -3 -3 -3 -2
2 2 2 1 1 1 0 -0 -1 -1 -2 -2 -2 -3 -3 -3 -3 -3 -3 -3 -3 -3 -3 -3 -3 -3 -3 -3 -3 -4 -4 -4 -4 -4 -4 -4 -3 -4 -4 -3 -3 -3 -3
1 1 1 0 -0 -0 -1 -1 -2 -3 -3 -3 -3 -3 -4 -4 -3 -3 -3 -3 -3 -3 -3 -3 -3 -3 -3 -3 -3 -4 -4 -4 -4 -4 -4 -4 -4 -4 -4 -4 -4 -4 -4
0 -0 -0 -1 -1 -1 -2 -2 -3 -4 -4 -4 -4 -4 -4 -4 -4 -4 -4 -4 -3 -3 -3 -3 -3 -3 -3 -3 -4 -4 -4 -4 -4 -4 -5 -5 -5 -5 -5 -5 -5 -4 -4
-1 -1 -2 -2 -2 -2 -2 -3 -4 -4 -4 -4 -4 -4 -4 -4 -4 -4 -4 -4 -4 -4 -4 -4 -3 -3 -3 -4 -4 -4 -4 -4 -4 -5 -5 -5 -5 -5 -5 -5 -5 -5 -5
-2 -2 -2 -3 -3 -3 -3 -4 -5 -5 -5 -5 -5 -4 -4 -4 -4 -4 -4 -4 -4 -4 -4 -4 -4 -4 -4 -4 -4 -4 -4 -4 -5 -5 -5 -6 -6 -6 -6 -6 -5 -5 -5
-3 -3 -3 -4 -4 -4 -4 -5 -5 -5 -5 -5 -5 -4 -4 -4 -4 -4 -4 -4 -4 -4 -4 -4 -4 -4 -4 -4 -4 -4 -4 -4 -5 -5 -5 -6 -6 -6 -6 -6 -6 -5 -5
Wind_Speed
10 11 11 11 11 11 11 11 11 12 12 12 12 13 13 14 14 13 12 14 17 19 19 20 20 19 19 19 18 18 17 16 16 15 15 14 13 12 12 11 11 10 9
12 11 12 12 12 13 13 13 13 13 12 12 13 15 15 16 16 16 16 15 19 21 22 23 23 23 23 22 22 21 21 20 19 19 18 17 16 16 15 14 13 13 12
15 14 12 12 13 14 15 14 15 14 12 13 14 16 16 17 18 18 18 17 17 20 24 26 26 26 26 26 25 25 24 23 23 22 21 21 20 19 18 17 16 16 15
17 15 13 13 15 14 13 12 12 12 12 13 13 13 14 15 18 20 19 19 19 18 21 26 29 29 29 29 29 28 27 27 26 25 25 24 23 22 21 20 19 19 18
17 16 14 15 15 13 12 11 12 12 13 14 14 14 14 14 16 18 20 22 22 21 21 22 28 31 32 33 32 32 31 30 29 29 28 27 26 25 24 23 22 21 20
16 16 15 16 15 10 11 12 14 13 13 13 14 14 15 16 16 17 19 21 22 24 24 24 23 25 32 35 35 35 34 33 33 32 31 30 29 29 28 26 25 24 23
15 15 13 14 13 11 13 15 14 14 13 12 11 12 15 18 19 17 16 17 19 23 23 24 22 21 21 28 35 37 37 36 36 35 34 33 32 31 31 29 28 27 26
15 14 14 12 12 11 14 15 14 12 11 9 8 9 10 11 13 14 14 15 16 16 18 21 22 22 21 19 22 31 36 38 38 37 37 36 35 34 33 32 31 30 29
13 14 15 14 12 12 12 14 14 15 13 12 11 10 8 8 9 8 11 12 13 13 14 16 19 21 22 21 20 24 31 35 37 38 38 38 37 36 36 34 33 32 31
10 12 13 14 13 12 13 14 14 13 14 13 12 12 14 11 10 10 9 10 13 14 16 14 15 19 21 21 22 24 27 30 33 35 37 38 38 38 37 36 35 34 33
7 9 11 11 12 11 14 14 14 14 13 14 13 12 14 14 16 13 16 16 15 14 15 16 15 16 20 22 21 24 28 30 31 33 34 36 38 38 38 38 37 36 35
5 6 8 9 10 11 12 13 14 16 15 16 15 14 14 13 12 14 17 18 18 16 16 15 15 15 18 21 24 27 29 31 32 32 33 34 36 37 38 39 38 37 36
6 7 7 8 9 10 12 12 13 15 16 17 17 15 15 16 16 16 17 19 21 18 18 16 15 15 17 20 21 26 30 32 32 33 33 34 34 36 37 38 38 37 37
7 9 9 9 11 12 12 12 12 14 15 16 18 19 16 16 16 16 17 17 19 20 19 21 15 16 16 18 21 23 24 29 31 32 33 33 34 35 36 37 37 37 36
8 10 10 11 12 12 13 13 12 15 15 16 17 18 17 16 16 16 16 16 17 20 22 21 17 17 15 16 19 20 22 25 28 30 31 32 33 34 34 35 36 36 36
10 11 12 13 14 14 14 14 14 15 17 17 15 18 18 16 16 15 16 16 17 18 21 19 17 16 14 14 19 21 22 25 27 29 30 30 31 32 33 34 34 35 35
12 13 14 14 15 16 16 16 16 17 18 18 18 19 20 20 17 16 16 16 16 17 20 23 18 17 19 18 17 17 19 19 19 26 28 29 30 31 31 32 33 34 35
13 14 15 16 16 17 17 18 19 18 19 20 20 20 21 17 20 18 16 18 17 18 19 24 22 18 19 18 17 18 16 16 17 22 26 27 28 29 30 31 32 33 33
15 16 16 17 17 17 18 18 19 19 20 20 20 20 20 20 21 18 18 18 16 16 17 19 22 18 15 14 15 17 19 17 17 20 24 26 28 29 29 30 30 31 31
16 17 17 17 17 17 17 18 18 18 19 20 20 20 20 20 20 20 18 19 17 17 16 17 19 17 15 14 12 14 15 15 15 15 18 19 22 26 28 29 30 30 31
16 17 18 18 18 15 14 14 14 17 18 19 20 20 21 23 25 21 17 15 15 15 15 16 17 16 15 12 12 12 14 14 15 14 14 14 14 15 17 24 28 30 30
17 18 18 19 19 16 20 25 22 20 18 18 18 19 20 21 24 28 30 28 24 17 16 16 16 17 16 15 13 12 13 13 13 10 13 14 12 13 13 13 19 25 27
18 18 18 19 20 20 24 26 26 22 21 19 19 18 16 16 21 16 21 26 26 29 27 19 18 19 18 15 14 15 15 14 15 12 9 12 12 13 12 14 20 22 24
18 18 19 20 20 21 24 26 26 22 19 19 19 19 19 18 17 17 14 15 17 18 20 17 14 15 16 15 12 13 14 14 13 12 10 10 11 12 11 11 18 22 24
18 18 18 20 20 21 24 25 25 17 16 18 18 18 19 19 23 25 18 16 17 15 20 25 25 24 25 25 19 11 11 11 12 11 11 9 9 10 10 11 13 20 22
18 18 19 19 20 21 23 24 25 15 16 16 16 16 21 22 24 25 18 16 17 15 13 14 16 18 17 18 21 13 10 11 9 9 10 10 9 7 6 9 11 11 14
Wind_Direction
222 224 229 231 233 235 235 239 244 248 249 252 252 255 257 257 257 256 257 252 254 257 260 262 262 262 260 257 254 252 251 250 250 250 250 250 251 252 254 257 260 263 265
229 230 235 236 239 239 242 246 250 254 255 255 257 256 257 258 257 255 254 254 250 251 253 256 258 259 259 258 256 252 250 248 247 247 247 247 247 248 249 251 254 257 259
233 235 241 242 243 244 246 249 254 256 258 259 260 260 259 258 257 256 255 253 252 248 248 250 253 255 256 256 256 254 251 248 246 245 245 244 245 245 246 247 249 250 253
239 242 245 248 248 248 247 249 253 254 256 258 261 262 259 256 257 257 255 251 249 249 247 246 247 249 251 252 253 253 251 249 247 245 243 243 242 243 243 244 246 247 249
243 244 248 252 253 249 248 251 254 256 260 263 264 266 264 261 259 257 254 252 249 247 247 247 245 246 248 249 249 250 250 249 247 245 243 242 241 240 241 242 243 244 246
244 247 251 255 256 251 250 252 254 257 260 268 274 273 269 264 260 256 255 254 250 246 245 246 246 246 245 246 247 247 247 247 246 245 244 242 241 240 239 240 240 242 243
247 246 250 256 254 250 252 255 257 260 261 264 272 276 269 260 255 252 251 251 250 247 245 244 244 245 246 245 245 246 246 246 245 245 243 242 241 240 238 238 238 239 240
250 248 249 253 254 252 254 257 256 257 260 252 253 278 284 278 253 243 246 246 249 248 245 243 242 241 242 244 244 244 245 246 245 245 244 242 241 240 239 238 237 238 238
255 251 253 255 257 254 256 257 254 251 254 254 238 245 267 275 299 255 240 244 246 248 248 245 243 242 240 240 243 242 243 245 246 246 245 244 242 240 239 238 237 237 237
265 260 258 258 259 256 256 257 255 253 252 256 253 238 244 262 275 284 259 247 249 252 254 252 249 245 242 241 239 240 241 242 245 246 247 246 244 243 241 239 238 237 237
278 270 266 263 261 260 259 260 259 254 249 250 252 251 249 251 252 258 273 274 266 256 254 254 253 250 247 244 243 241 241 243 244 246 247 247 246 245 243 241 239 237 237
297 286 277 269 266 264 263 262 261 258 253 252 251 250 251 250 249 252 264 271 272 269 263 255 252 252 250 248 246 244 244 245 246 246 247 247 247 246 245 243 241 239 238
308 307 294 281 275 270 268 266 263 260 257 254 253 252 251 250 253 257 265 272 275 274 270 264 255 252 250 249 250 246 247 247 248 247 247 246 247 247 246 245 244 242 240
306 307 299 289 284 280 275 270 267 263 261 258 257 255 255 254 253 252 256 267 275 276 270 265 257 251 250 250 250 246 250 249 248 248 248 246 246 246 245 245 244 243 243
302 300 297 293 289 285 281 278 271 269 267 264 262 261 258 258 256 255 255 255 261 274 276 273 269 259 251 250 250 250 251 251 250 249 249 248 246 245 244 244 243 243 243
302 299 298 295 292 289 285 281 277 274 273 270 267 265 263 261 259 256 254 254 252 258 271 273 272 268 261 254 254 255 256 256 254 252 251 250 248 246 245 244 243 242 241
303 300 298 296 294 292 290 286 281 279 277 275 271 268 266 265 264 262 258 255 253 252 262 272 271 268 263 257 255 254 256 257 256 252 251 251 250 248 246 244 243 242 240
302 300 298 295 293 291 290 288 287 284 281 278 276 274 271 270 266 264 261 258 256 253 255 267 272 270 265 260 255 254 254 255 256 256 253 252 251 250 248 246 244 242 241
301 300 297 295 293 291 290 288 287 286 283 281 280 277 276 273 270 266 263 261 259 258 255 261 269 271 268 261 257 254 253 254 256 256 254 252 251 250 249 247 246 244 242
300 299 297 294 292 289 285 284 284 283 283 281 278 276 274 271 269 268 267 264 263 261 260 260 266 269 267 261 253 253 254 251 253 254 253 251 250 249 248 247 246 245 243
298 297 295 293 291 288 281 277 276 277 276 277 276 274 271 269 266 266 264 262 258 258 259 260 262 265 263 256 248 245 249 254 254 250 251 249 247 245 243 244 244 244 243
299 298 296 294 292 289 287 289 289 287 283 280 279 278 275 273 271 270 270 268 263 258 256 257 261 260 261 256 250 244 244 247 252 240 240 246 241 243 241 240 239 240 241
300 299 297 295 293 292 293 293 292 291 288 286 285 284 282 278 277 271 271 273 274 272 266 262 262 261 263 258 253 247 240 239 243 241 237 246 241 242 241 239 241 240 240
301 299 298 297 296 294 295 296 297 295 289 286 285 284 283 281 277 274 268 266 266 266 266 268 262 262 261 261 252 247 247 246 247 243 229 241 241 241 239 237 238 237 239
300 300 299 298 297 297 298 299 298 295 290 288 286 283 282 281 280 281 278 272 271 268 267 264 262 262 260 258 251 244 238 237 242 236 219 225 240 240 239 237 235 234 235
299 300 298 297 296 297 298 299 299 295 293 291 288 284 282 281 282 282 279 275 273 273 268 265 264 264 265 265 262 248 235 235 237 234 211 209 225 223 238 234 230 227 229
Height
1560 1561 1561 1561 1561 1561 1561 1560 1560 1559 1558 1557 1556 1555 1555 1553 1552 1551 1550 1549 1549 1548 1547 1546 1546 1546 1545 1545 1545 1544 1543 1543 1542 1542 1541 1541 1540 1540 1539 1539 1539 1538 1538
1556 1557 1557 1557 1558 1558 1557 1557 1556 1555 1554 1553 1552 1551 1550 1549 1547 1546 1545 1544 1543 1543 1542 1541 1541 1541 1541 1540 1540 1540 1539 1539 1538 1538 1537 1537 1537 1536 1536 1536 1535 1535 1535
1552 1553 1553 1553 1553 1553 1553 1552 1552 1550 1549 1548 1546 1545 1543 1542 1541 1540 1539 1537 1537 1536 1536 1535 1535 1535 1534 1534 1534 1534 1534 1534 1533 1533 1533 1533 1532 1532 1532 1532 1531 1531 1531
1548 1549 1548 1548 1548 1548 1547 1547 1546 1544 1543 1541 1540 1538 1536 1535 1533 1533 1531 1530 1529 1528 1528 1528 1528 1527 1527 1527 1527 1527 1527 1527 1527 1527 1527 1527 1527 1527 1527 1527 1527 1527 1527
1543 1543 1543 1543 1543 1542 1541 1540 1540 1539 1537 1535 1533 1531 1528 1526 1525 1523 1522 1521 1520 1519 1519 1519 1519 1519 1519 1518 1518 1519 1519 1520 1520 1520 1520 1520 1521 1521 1521 1521 1522 1522 1522
1537 1537 1537 1537 1537 1535 1534 1534 1533 1532 1530 1528 1526 1522 1520 1517 1515 1513 1512 1512 1511 1510 1509 1509 1509 1508 1508 1508 1509 1509 1510 1510 1511 1512 1512 1513 1513 1514 1514 1515 1515 1516 1517
1531 1531 1531 1531 1530 1529 1528 1527 1526 1524 1523 1522 1518 1514 1510 1509 1505 1502 1502 1502 1501 1500 1499 1498 1498 1497 1496 1497 1497 1498 1499 1500 1501 1502 1503 1504 1505 1505 1506 1507 1508 1509 1510
1527 1526 1525 1525 1524 1523 1521 1521 1520 1517 1516 1516 1513 1510 1505 1502 1498 1494 1492 1491 1491 1490 1489 1488 1487 1486 1485 1485 1485 1486 1487 1488 1490 1491 1493 1494 1495 1496 1498 1499 1500 1501 1502
1523 1522 1521 1520 1518 1517 1515 1514 1513 1511 1509 1509 1506 1505 1502 1496 1492 1488 1484 1482 1481 1480 1479 1478 1476 1475 1475 1474 1473 1474 1475 1476 1477 1479 1481 1483 1485 1486 1488 1490 1491 1493 1494
1520 1518 1517 1515 1514 1512 1510 1508 1507 1505 1502 1500 1500 1496 1494 1492 1489 1480 1478 1476 1472 1470 1469 1467 1465 1465 1464 1463 1462 1463 1464 1465 1465 1466 1468 1470 1473 1476 1478 1480 1482 1484 1485
1516 1514 1512 1511 1509 1507 1505 1503 1501 1498 1496 1493 1491 1489 1487 1483 1480 1476 1468 1468 1467 1463 1460 1457 1455 1453 1452 1451 1450 1450 1452 1453 1453 1454 1455 1457 1460 1463 1466 1469 1472 1474 1476
1512 1510 1508 1506 1504 1501 1499 1497 1494 1491 1489 1486 1483 1481 1479 1476 1472 1469 1462 1458 1456 1454 1453 1449 1445 1443 1441 1440 1439 1439 1440 1440 1441 1441 1443 1444 1447 1450 1454 1458 1461 1464 1466
1508 1506 1503 1501 1498 1496 1493 1490 1487 1484 1481 1478 1475 1472 1469 1466 1464 1461 1456 1450 1446 1443 1442 1440 1437 1434 1431 1429 1427 1428 1428 1428 1429 1429 1430 1432 1434 1437 1441 1445 1449 1452 1455
1504 1502 1499 1496 1493 1490 1487 1483 1479 1476 1473 1470 1466 1464 1460 1457 1454 1451 1447 1444 1436 1431 1430 1428 1428 1425 1422 1419 1417 1417 1417 1417 1417 1417 1418 1419 1421 1424 1427 1431 1435 1440 1444
1500 1497 1493 1490 1487 1483 1480 1476 1471 1468 1464 1460 1457 1454 1450 1447 1444 1441 1438 1436 1432 1423 1415 1417 1418 1416 1414 1411 1408 1408 1406 1406 1406 1406 1407 1408 1409 1412 1415 1418 1422 1427 1431
1495 1491 1487 1484 1480 1476 1472 1467 1463 1459 1455 1451 1447 1443 1440 1437 1434 1431 1428 1425 1422 1417 1406 1402 1406 1406 1404 1401 1400 1398 1397 1396 1395 1395 1396 1397 1398 1400 1403 1406 1410 1414 1418
1488 1484 1480 1476 1472 1467 1463 1459 1454 1450 1445 1441 1437 1433 1429 1427 1423 1420 1417 1414 1411 1408 1400 1390 1394 1395 1394 1392 1390 1389 1388 1387 1385 1385 1385 1386 1388 1390 1392 1395 1399 1402 1407
1481 1477 1472 1467 1463 1458 1454 1449 1444 1440 1435 1430 1426 1423 1419 1416 1412 1410 1407 1403 1400 1398 1393 1384 1381 1383 1383 1382 1381 1379 1378 1377 1376 1375 1375 1376 1377 1379 1382 1384 1388 1391 1395
1473 1469 1464 1458 1453 1448 1443 1439 1434 1429 1424 1419 1415 1411 1407 1405 1401 1398 1396 1392 1389 1387 1384 1378 1371 1372 1372 1372 1371 1369 1368 1367 1365 1365 1365 1365 1366 1368 1370 1373 1376 1380 1383
1465 1460 1455 1449 1443 1438 1433 1428 1423 1417 1412 1407 1403 1399 1395 1392 1389 1387 1384 1381 1379 1376 1374 1370 1364 1362 1362 1362 1361 1359 1358 1357 1356 1356 1355 1355 1356 1357 1359 1362 1365 1368 1372
1456 1451 1445 1439 1434 1428 1422 1417 1411 1406 1400 1395 1391 1388 1384 1381 1378 1376 1373 1370 1368 1365 1363 1359 1355 1353 1352 1352 1351 1350 1349 1348 1347 1347 1346 1346 1347 1347 1348 1350 1353 1357 1361
1448 1442 1436 1429 1423 1418 1413 1407 1402 1396 1391 1386 1381 1377 1374 1371 1367 1364 1362 1360 1359 1355 1352 1350 1346 1343 1342 1343 1342 1341 1340 1339 1338 1339 1338 1337 1338 1337 1338 1340 1342 1345 1349
1439 1433 1427 1420 1414 1408 1403 1397 1392 1387 1382 1376 1372 1367 1364 1360 1358 1354 1351 1349 1347 1345 1343 1341 1336 1333 1333 1333 1333 1331 1330 1329 1329 1331 1331 1329 1330 1329 1330 1331 1333 1336 1339
1430 1424 1418 1412 1405 1399 1394 1388 1383 1378 1372 1367 1363 1359 1355 1351 1348 1345 1341 1338 1335 1333 1332 1330 1327 1324 1324 1323 1323 1322 1321 1321 1321 1322 1323 1322 1322 1323 1323 1323 1325 1327 1329
1421 1415 1409 1402 1395 1389 1385 1379 1375 1369 1363 1359 1355 1351 1347 1343 1339 1337 1333 1329 1326 1323 1321 1319 1317 1315 1314 1314 1314 1313 1312 1312 1311 1312 1314 1314 1315 1316 1316 1316 1317 1319 1321
1413 1406 1399 1394 1387 1381 1376 1371 1367 1362 1356 1351 1347 1342 1339 1335 1331 1328 1325 1321 1317 1314 1312 1309 1308 1306 1305 1304 1305 1304 1304 1304 1303 1304 1304 1306 1307 1310 1310 1310 1311 1312 1314